Flag for U.S.A. Weather past 2 weeks in Post Falls, Idaho, U.S.A.

Now
55 °F

Clear.


Feels Like: 55 °F
Forecast: 50 / 80 °F
Wind: No wind

Location: Coeur d'Alene Weather Reporting System

Current Time: Sep 20, 2014 at 2:00:30 AM

Latest Report: Sep 20, 2014 at 1:35 AM


Visibility: 10 mi

Pressure: 30.13 "Hg

Humidity: 72%

Dew point: 46 °F

Location of Post FallsLocation

Historic Weather in Post Falls — Graph

°F

Post Falls temperature yesterday

Maximum temperature yesterday: 75 °F (at 2:15 PM)
Minimum temperature yesterday: 54 °F (at 5:35 AM)
Average temperature yesterday: 64 °F

Past Weeks' High & Low Weather Summary

 TemperatureHumidityPressure
High84 °F (Sep 17, 3:55 PM)100% (Sep 15, 5:55 AM)30.47 "Hg (Sep 15, 5:55 AM)
Low36 °F (Sep 12, 5:55 AM)10% (Sep 6, 9:35 PM)29.65 "Hg (Sep 18, 1:55 AM)
Average61 °F46%30.00 "Hg
* Reported Sep 5 12:15 AM — Sep 20 12:55 AM, Post Falls, Weather by CustomWeather, © 2014

Note: Actual official high and low records may vary slightly from our data, if they occured in-between our weather recording intervals... More about our weather records

Advertising

Post Falls weather history for previous 24 hours

 ConditionsComfort  
Time TempWeatherWind HumidityBarometerVisibility
12:55 AM
Sep 20
57 °FClear.6 mph77%30.12 "Hg10 mi
12:35 AM57 °FClear.5 mph72%30.12 "Hg10 mi
12:15 AM55 °FClear.3 mph72%30.11 "Hg10 mi
11:55 PM
Sep 19
57 °FClear.3 mph72%30.10 "Hg10 mi
11:35 PM55 °FClear.No wind67%30.10 "Hg10 mi
11:15 PM55 °FClear.3 mph72%30.10 "Hg10 mi
10:55 PM55 °FClear.No wind67%30.10 "Hg10 mi
10:35 PM55 °FClear.No wind67%30.10 "Hg10 mi
10:15 PM57 °FClear.3 mph63%30.09 "Hg10 mi
9:55 PM61 °FClear.6 mph59%30.09 "Hg10 mi
9:35 PM61 °FClear.No wind59%30.08 "Hg10 mi
9:15 PM61 °FClear.3 mph59%30.08 "Hg10 mi
8:55 PM64 °FClear.8 mph52%30.06 "Hg10 mi
8:35 PM63 °FClear.7 mph56%30.06 "Hg10 mi
7:55 PM64 °FClear.7 mph52%30.05 "Hg10 mi
7:35 PM63 °FSunny.7 mph52%30.05 "Hg10 mi
7:15 PM66 °FSunny.6 mph49%30.04 "Hg10 mi
6:55 PM68 °FSunny.8 mph46%30.04 "Hg10 mi
6:15 PM72 °FPassing clouds.8 mph41%30.04 "Hg10 mi
5:55 PM73 °FPassing clouds.9 mph36%30.04 "Hg10 mi
5:35 PM73 °FScattered clouds.9 mph41%30.04 "Hg10 mi
5:15 PM73 °FSunny.7 mph38%30.03 "Hg10 mi
4:55 PM73 °FSunny.10 mph38%30.03 "Hg10 mi
4:35 PM73 °FPassing clouds.13 mph38%30.03 "Hg10 mi
4:15 PM73 °FScattered clouds.8 mph38%30.04 "Hg10 mi
3:55 PM75 °FOvercast.12 mph39%30.04 "Hg10 mi
3:35 PM73 °FOvercast.8 mph38%30.05 "Hg10 mi
3:15 PM73 °FMore clouds than sun.9 mph41%30.05 "Hg10 mi
2:55 PM73 °FMostly cloudy.10 mph41%30.05 "Hg10 mi
2:35 PM73 °FPartly sunny.9 mph38%30.04 "Hg10 mi
2:15 PM75 °FPassing clouds.9 mph39%30.05 "Hg10 mi
1:55 PM73 °FPartly sunny.13 mph41%30.04 "Hg10 mi
1:35 PM73 °FPartly sunny.7 mph41%30.05 "Hg10 mi
1:15 PM73 °FBroken clouds.7 mph44%30.05 "Hg10 mi
12:55 PM72 °FPartly sunny.9 mph44%30.05 "Hg10 mi
12:35 PM70 °FBroken clouds.9 mph46%30.05 "Hg10 mi
12:15 PM70 °FBroken clouds.9 mph50%30.06 "Hg10 mi
11:55 AM70 °FPartly sunny.10 mph50%30.06 "Hg10 mi
11:35 AM70 °FPartly sunny.7 mph46%30.06 "Hg10 mi
10:55 AM66 °FPartly sunny.8 mph60%30.06 "Hg10 mi
10:35 AM64 °FPassing clouds.6 mph56%30.06 "Hg10 mi
10:15 AM64 °FPassing clouds.8 mph56%30.06 "Hg10 mi
9:55 AM64 °FSunny.6 mph56%30.06 "Hg10 mi
9:35 AM63 °FSunny.9 mph59%30.05 "Hg10 mi
9:15 AM63 °FSunny.10 mph59%30.05 "Hg10 mi
8:55 AM63 °FPartly sunny.15 mph59%30.04 "Hg10 mi
8:35 AM61 °FPartly sunny.12 mph68%30.04 "Hg10 mi
8:15 AM57 °FSunny.12 mph72%30.03 "Hg10 mi
7:55 AM57 °FPartly sunny.8 mph72%30.03 "Hg10 mi
7:35 AM57 °FOvercast.6 mph72%30.03 "Hg10 mi
7:15 AM55 °FOvercast.3 mph77%30.03 "Hg10 mi
6:55 AM55 °FMostly cloudy.No wind77%30.02 "Hg10 mi
6:35 AM55 °FMostly cloudy.3 mph77%30.01 "Hg10 mi
6:15 AM55 °FMostly cloudy.7 mph77%29.99 "Hg10 mi
5:55 AM54 °FPassing clouds.8 mph77%29.98 "Hg10 mi
5:35 AM54 °FPassing clouds.3 mph77%29.98 "Hg10 mi
5:15 AM55 °FPassing clouds.7 mph72%29.97 "Hg10 mi
4:55 AM55 °FClear.N/A72%29.96 "Hg10 mi
4:35 AM57 °FPassing clouds.9 mph63%29.95 "Hg10 mi
4:15 AM57 °FMostly cloudy.10 mph67%29.95 "Hg10 mi
3:55 AM59 °FMostly cloudy.7 mph63%29.94 "Hg10 mi
3:35 AM59 °FOvercast.8 mph68%29.94 "Hg10 mi
3:15 AM59 °FOvercast.8 mph63%29.93 "Hg10 mi
2:55 AM59 °FMostly cloudy.9 mph68%29.93 "Hg10 mi
2:35 AM57 °FOvercast.8 mph67%29.92 "Hg10 mi
2:15 AM57 °FPassing clouds.3 mph67%29.92 "Hg10 mi
Weather by CustomWeather, © 2014

See weather overviewHow to use our weather pages